Regional Weather Roundup
Issued by NWS

Home | Current Version | Previous Version | Text Only | Print | Product List | Glossary Off
Versions: 1 2 3 4 5 6 7 8 9 10 11 12 13 14 15 16 17 18 19 20 21 22 23 24 25 26 27

000
ASUS45 KPSR 190810
RWRAZ

ARIZONA HOURLY REGIONAL WEATHER ROUNDUP
NATIONAL WEATHER SERVICE PHOENIX AZ
100 AM MST THU APR 19 2018

NOTE: FAIR INDICATES FEW OR NO CLOUDS BELOW 12,000 FEET WITH NO
SIGNIFICANT WEATHER AND/OR OBSTRUCTIONS TO VISIBILITY.

AZZ001>003-036-190900-
NORTHWEST ARIZONA

CITY           SKY/WX    TMP DP  RH WIND       PRES   REMARKS
BULLHEAD CITY  CLOUDY    66  14  13 CALM      29.82F
KINGMAN        MOCLDY    56  11  16 S8        29.93S
$$

AZZ004>008-015-016-018-190900-
NORTH CENTRAL ARIZONA

CITY           SKY/WX    TMP DP  RH WIND       PRES   REMARKS
GRAND CANYON   CLEAR     26  -2  29 NE7       30.07F WCI  18
WILLIAMS       PTCLDY    41   0  17 SE12G17   30.03F
PRESCOTT       CLEAR     47   6  18 SE7       30.02F
FLAGSTAFF      CLEAR     26   3  37 CALM      30.08F
PAYSON         CLEAR     43   1  17 CALM      30.05S
PAGE           CLEAR     48   5  17 CALM      29.98S
$$

AZZ009>014-017-190900-
NORTHEAST ARIZONA

CITY           SKY/WX    TMP DP  RH WIND       PRES   REMARKS
WINSLOW        CLEAR     44   2  17 S3        30.04S
SHOW LOW       CLEAR     45  -2  14 S7        30.12F
$$

AZZ540-542>544-546-548-190900-
GREATER PHOENIX AREA

CITY           SKY/WX    TMP DP  RH WIND       PRES   REMARKS
PHOENIX        CLEAR     65  23  20 SE5       29.88S
BUCKEYE        CLEAR     55  14  19 N5        29.89F
LUKE AFB       CLEAR     56  23  27 N5        29.87F
DEER VALLEY    CLEAR     62  10  13 NE3       29.90S
SCOTTSDALE     CLEAR     61  27  27 CALM      29.91F
MESA-GATEWAY   CLEAR     57  18  21 SE7       29.92S
$$

AZZ539-553-190900-
SOUTHWEST MARICOPA COUNTY AND PINAL COUNTY

CITY           SKY/WX    TMP DP  RH WIND       PRES   REMARKS
CASA GRANDE    CLEAR     58  14  17 W3        29.92S
GILA BEND      FAIR      60  15  17 S8        29.88F
$$

AZZ503-504-507>509-190900-
SOUTHEAST ARIZONA

CITY           SKY/WX    TMP DP  RH WIND       PRES   REMARKS
TUCSON         CLEAR     60   9  13 SE8       29.99F
DAVIS-MONTHAN  CLEAR     56  11  16 SE8       29.97F
NOGALES        CLEAR     52  13  21 CALM      30.05S
SIERRA VISTA   CLEAR     57  10  15 S7        30.09S
DOUGLAS        CLEAR     51   6  16 SE3       30.07S
SAFFORD        CLEAR     55   4  12 E3        29.99S
$$

AZZ532-190900-
SOUTHWEST ARIZONA

CITY           SKY/WX    TMP DP  RH WIND       PRES   REMARKS
YUMA           CLEAR     61  28  28 CALM      29.87S
$$

CAZ041-043-047-048-061-525>527-560>570-190900-
SOUTHERN CALIFORNIA

CITY           SKY/WX    TMP DP  RH WIND       PRES   REMARKS
DOWNTOWN L.A.  MOCLDY    54  45  71 CALM      30.00
L.A. AIRPORT   PTCLDY    54  44  69 W12       30.02S
SAN DIEGO      PTCLDY    57  49  74 NW6       30.05F
BURBANK        CLEAR     52  44  74 SE8       29.99S
ONTARIO        PTCLDY    50  46  86 W10       30.00R
RIVERSIDE      CLEAR     52  43  71 CALM      30.00S
PALM SPRINGS   CLEAR     64  31  28 NW17      29.87F
EL CENTRO NAS  CLEAR     65  26  23 W16       29.87F
IMPERIAL       CLEAR     61  31  32 CALM      29.87S
BLYTHE         CLEAR     62  31  31 SW5       29.87R
NEEDLES        MOCLDY    72  14  11 SW9       29.82F
$$

NVZ020-UTZ003-190900-
SOUTHERN NEVADA-UTAH

CITY           SKY/WX    TMP DP  RH WIND       PRES   REMARKS
LAS VEGAS      MOCLDY    66  11  11 S6        29.81F
SALT LAKE CITY MOCLDY    47  27  45 S8        29.93F
$$

NMZ009-TXZ055-190900-
NEW MEXICO-WEST TEXAS

CITY           SKY/WX    TMP DP  RH WIND       PRES   REMARKS
ALBUQUERQUE    PTCLDY    53  11  18 E28G37    30.15S
EL PASO        PTCLDY    63  10  12 E12       30.12S
$$


........................KEY........................
SKY/WX - SKY CONDITION/WEATHER
TMP    - TEMPERATURE IN FAHRENHEIT
DP     - DEW POINT IN FAHRENHEIT
RH     - RELATIVE HUMIDITY IN PERCENT
WIND   - DIRECTION AND SPEED IN MILES PER HOUR (MPH)
VRB    - VARIABLE WIND DIRECTION
PRES   - MEAN SEA LEVEL PRESSURE IN INCHES OF MERCURY
         F - FALLING PRESSURE   R - RISING PRESSURE
         S - STEADY PRESSURE
VSB    - VISIBILITY IN MILES
HX     - HEAT INDEX IN FAHRENHEIT
WCI    - WIND CHILL INDEX IN FAHRENHEIT
TC     - TEMPERATURE IN CELSIUS WHICH IS ALSO KNOWN AS
         TEMPERATURE IN CENTIGRADE
AFB    - AIR FORCE BASE
         LUKE AFB IS LUKE AIR FORCE BASE
         DAVIS-MONTHAN IS DAVIS-MONTHAN AIR FORCE BASE
NAS    - NAVAL AIR STATION
         EL CENTRO NAS IS EL CENTRO NAVAL AIR STATION
N/A    - NOT AVAILABLE





USA.gov is the U.S. government's official web portal to all federal, state and local government web resources and services.